Voltar ao catálogo

STARLINK-30119

AtivoComunicaçõesVLEO
NORAD 56823·PAYLOAD·🇺🇸 United States

Lançado Jun 4, 2023 de Cape Canaveral Space Force Station

Loading…

Próximas Passagens (próximas 24 horas)

TLE

AtualizadoSource: CelesTrak SupGP

Época: Sep 14, 2026, 22:14 UTC

1 56823C 23079A   26257.92687500  .00010306  00000+0  37322-3 0  2570
2 56823  42.9991 118.5733 0001345 264.2227 214.0000 15.27578062    17

Acompanhe STARLINK-30119 em tempo real com AllMySat

Download on the App Store